Newton, KS

11:42 AM CST on November 22, 2019 (GMT -0600)
Newton City County

Weather History for KEWK - August, 2019

Change the Weather History Date:

Monday, August 19, 2019

  Actual Average Record
Temperature  
Mean Temperature 82 °F -  
Max Temperature 91 °F 87 °F 105 °F (2011)
Min Temperature 73 °F 65 °F 55 °F (2001)
Cooling Degree Days 17    
Growing Degree Days 32 (Base 50)    
Moisture  
Dew Point 75 °F    
Average Humidity 80    
Maximum Humidity 97    
Minimum Humidity 65    
Precipitation  
Precipitation 0.00 in - - ()
Sea Level Pressure  
Sea Level Pressure 29.91 in    
Wind  
Wind Speed 10 mph (SSE)    
Max Wind Speed 16 mph    
Max Gust Speed -    
Visibility 10 miles    
Events      
Averages and records for this station are not official NWS values.
T = Trace of Precipitation, MM = Missing Value Source: NWS Daily Summary

Daily Weather History Graph

Daily Weather History Graph

Search for Another Location

Airport or City:

Astronomy

Aug. 19, 2019 Rise Set
Actual Time 6:47 AM CDT 8:17 PM CDT
Civil Twilight 6:19 AM CDT 8:45 PM CDT
Nautical Twilight 5:46 AM CDT 9:18 PM CDT
Astronomical Twilight 5:10 AM CDT 9:53 PM CDT
Moon 10:42 PM CDT (8/19) 10:26 AM CDT (8/19)
Length of Visible Light 14h 25m
Length of Day
13h 29m
Waning Gibbous, 85% of the Moon is Illuminated
Aug 19
Waning Gibbous
Aug 23
Last Quarter
Aug 30
New
Sep 5
First Quarter
Sep 13
Full

Hourly Weather History & Observations

Time (CDT) Temp. Heat Index Dew Point Humidity Pressure Visibility Wind Dir Wind Speed Gust Speed Precip Events Conditions
12:56 AM 73.9 °F - 73.0 °F 97% 29.90 in 10.0 mi SE 9.2 mph - N/A   Clear
1:56 AM 75.0 °F - 73.0 °F 94% 29.89 in 10.0 mi ESE 8.1 mph - N/A   Scattered Clouds
2:56 AM 75.0 °F - 73.9 °F 96% 29.89 in 9.0 mi East 5.8 mph - N/A   Partly Cloudy
3:56 AM 73.9 °F - 73.0 °F 97% 29.89 in 6.0 mi East 6.9 mph - N/A   Clear
4:56 AM 73.9 °F - 73.0 °F 97% 29.89 in 10.0 mi ESE 10.4 mph - N/A   Clear
5:56 AM 73.0 °F - 72.0 °F 96% 29.91 in 10.0 mi SE 9.2 mph - N/A   Clear
6:56 AM 73.0 °F - 72.0 °F 96% 29.92 in 10.0 mi North - - N/A   Clear
7:56 AM 73.9 °F - 72.0 °F 93% 29.94 in 10.0 mi SSE 10.4 mph - N/A   Clear
8:56 AM 78.1 °F - 73.0 °F 84% 29.94 in 10.0 mi South 10.4 mph - N/A   Clear
9:56 AM 81.0 °F 86.2 °F 73.9 °F 79% 29.94 in 10.0 mi South 13.8 mph - N/A   Clear
10:56 AM 84.0 °F 91.2 °F 73.9 °F 72% 29.95 in 10.0 mi South 9.2 mph - N/A   Clear
11:56 AM 87.1 °F 96.3 °F 75.0 °F 67% 29.94 in 10.0 mi South 6.9 mph - N/A   Clear
12:56 PM 89.1 °F 100.2 °F 75.9 °F 65% 29.94 in 10.0 mi South 6.9 mph - N/A   Clear
1:56 PM 89.1 °F 101.4 °F 77.0 °F 67% 29.93 in 10.0 mi SSE 8.1 mph - N/A   Clear
2:56 PM 90.0 °F 104.5 °F 78.1 °F 68% 29.91 in 10.0 mi SSE 11.5 mph - N/A   Unknown
3:56 PM 91.0 °F 107.6 °F 79.0 °F 68% 29.89 in 10.0 mi South 9.2 mph - N/A   Unknown
4:21 PM 89.6 °F 104.7 °F 78.8 °F 70% 29.93 in 10.0 mi SSE 16.1 mph - N/A   Scattered Clouds
4:56 PM 90.0 °F 104.5 °F 78.1 °F 68% 29.88 in 10.0 mi SSE 12.7 mph - N/A   Clear
5:56 PM 90.0 °F 104.5 °F 78.1 °F 68% 29.87 in 10.0 mi SSE 10.4 mph - N/A   Unknown
6:08 PM 89.6 °F 104.7 °F 78.8 °F 70% 29.92 in 10.0 mi SSE 10.4 mph - N/A   Partly Cloudy
6:56 PM 88.0 °F 101.3 °F 78.1 °F 72% 29.86 in 10.0 mi SSE 10.4 mph - N/A   Unknown
7:56 PM 86.0 °F 98.3 °F 78.1 °F 77% 29.87 in 10.0 mi SSE 11.5 mph - N/A   Unknown
8:56 PM 82.9 °F 91.8 °F 77.0 °F 82% 29.88 in 10.0 mi SSE 11.5 mph - N/A   Unknown
9:56 PM 82.0 °F 90.2 °F 77.0 °F 85% 29.90 in 10.0 mi SSE 12.7 mph - N/A   Unknown
10:56 PM 82.0 °F 88.6 °F 75.0 °F 79% 29.91 in 10.0 mi SSE 11.5 mph - N/A   Unknown
11:56 PM 81.0 °F 86.7 °F 75.0 °F 82% 29.91 in 10.0 mi SSE 12.7 mph - N/A   Unknown